Regional Weather Roundup
Issued by NWS Huntsville, AL

Home | Current Version | Previous Version | Text Only | Print | Product List | Glossary On
Versions: 1 2 3 4 5 6 7 8 9 10 11 12 13 14 15 16 17 18 19 20 21 22 23 24 25 26 27 28 29 30 31 32 33 34 35 36 37 38 39 40 41 42 43 44 45 46 47 48 49 50
000
ASUS44 KHUN 231510
RWRHUN

WEATHER ROUNDUP FOR THE TENNESSEE VALLEY
NATIONAL WEATHER SERVICE HUNTSVILLE AL
1000 AM CDT THU MAR 23 2017

ALZ001>004-231600-
NORTHWEST ALABAMA

CITY           SKY/WX    TMP DP  RH WIND       PRES   REMARKS
COURTLAND HCN    N/A     59 N/A N/A CALM        N/A
RUSSELLVILLE     N/A     61 N/A N/A MISG        N/A
SHOALS AIRPORT MOSUNNY   59  37  44 SE9       30.33R
SHOALS TVA RES   N/A     55 N/A N/A MISG        N/A
$$

ALZ005>007-016-231600-
NORTH CENTRAL ALABAMA

CITY           SKY/WX    TMP DP  RH WIND       PRES   REMARKS
CULLMAN AG STN   N/A     59 N/A N/A E9          N/A
DECATUR AP     SUNNY     60  43  53 SE17      30.34R
HUNTSVILLE AP  MOSUNNY   62  39  42 SE15      30.33R
MERIDIANVILLE  SUNNY     59  30  33 SE12G17   30.34R
REDSTONE ARSN  SUNNY     61  38  42 S15G23    30.33R
VINEMONT AP    FAIR      59  37  44 SE10G20   30.35R
$$

ALZ008>010-231600-
NORTHEAST ALABAMA

CITY           SKY/WX    TMP DP  RH WIND       PRES   REMARKS
ALBERTVILLE    SUNNY     57  41  54 E12G18    30.35R
FORT PAYNE     MOSUNNY   55  32  41 E16G22    30.38R
SCOTTSBORO AP  MOSUNNY   59  32  36 SE8G17    30.39R
SCOTTSBORO HCN   N/A     59 N/A N/A MISG        N/A
VALLEY HEAD      N/A     54 N/A N/A MISG        N/A
$$

TNZ076-096-097-231600-
SOUTHEASTERN MIDDLE TENNESSEE

CITY           SKY/WX    TMP DP  RH WIND       PRES   REMARKS
TULLAHOMA      SUNNY     57  25  28 SE14      30.35R
WINCHESTER     SUNNY     59  28  31 S18       30.35R
$$

...SURROUNDING SITES...

CITY           SKY/WX    TMP DP  RH WIND       PRES   REMARKS
ATLANTA        MOSUNNY   55  37  50 E18G26    30.43R
ANNISTON       SUNNY     62  39  42 E13       30.37R
BIRMINGHAM     SUNNY     63  42  46 SE10G22   30.35R
CHATTANOOGA    MOSUNNY   57  32  38 S12G17    30.42R
CORINTH        CLOUDY    52  32  46 SE5       30.30R
DALTON         PTSUNNY   55  37  50 SE9       30.43R
GADSDEN        MOSUNNY   61  39  44 E9        30.38R
GOLDEN TRNGL   SUNNY     61  36  39 CALM      30.26
HALEYVILLE     FAIR      59  42  53 SE12G20   30.34R
JACKSON TN     CLOUDY    51  29  42 S5        30.30S
MEMPHIS        MOSUNNY   59  26  28 SE8       30.28S
NASHVILLE      PTSUNNY   50  27  40 SE5       30.34S
OXFORD MS      FAIR      59  28  31 SE6       30.29R
ROME           CLOUDY    57  38  48 SE10      30.42R
SAVANNAH       PTSUNNY   59  34  38 VRB5      30.30R
TUPELO         MOSUNNY   58  29  33 E7        30.29S
TUSCALOOSA     SUNNY     63  44  50 SE9       30.31R
$$

...GULF COAST WEATHER...

CITY           SKY/WX    TMP DP  RH WIND       PRES   REMARKS
GULFPORT       SUNNY     72  52  49 SE13      30.24R
PASCAGOULA     SUNNY     71  52  50 SE10      30.25R
MOBILE         SUNNY     71  51  49 E9        30.27R
GULF SHORES    CLOUDY    70  63  78 E15G22    30.25R
PENSACOLA      CLOUDY    70  60  70 E14       30.25R
DESTIN         MOSUNNY   71  60  68 SE12      30.27
PANAMA CITY    SUNNY     70  59  67 E13       30.26R
APPALACHICOLA  CLOUDY    68  61  78 E15G25    30.26R
$$




USA.gov is the U.S. government's official web portal to all federal, state and local government web resources and services.